TimeCST,TemperatureF,Dew PointF,Humidity,Sea Level PressureIn,VisibilityMPH,Wind Direction,Wind SpeedMPH,Gust SpeedMPH,PrecipitationIn,Events,Conditions,WindDirDegrees,DateUTC
12:17 AM,35.6,33.8,93,29.79,7.0,SE,9.2,-,0.00,,Overcast,130,2013-01-11 06:17:00
12:56 AM,35.1,33.1,92,29.80,4.0,East,5.8,-,0.00,,Overcast,90,2013-01-11 06:56:00
1:31 AM,35.6,33.8,93,29.79,2.0,East,5.8,-,N/A,,Overcast,100,2013-01-11 07:31:00
1:40 AM,35.6,33.8,93,29.78,1.2,East,6.9,-,N/A,,Overcast,100,2013-01-11 07:40:00
1:53 AM,35.6,33.8,93,29.77,0.5,East,8.1,-,N/A,Fog,Fog,90,2013-01-11 07:53:00
1:56 AM,36.0,34.0,93,29.77,0.5,East,9.2,-,N/A,Fog,Fog,100,2013-01-11 07:56:00
2:56 AM,36.0,35.1,97,29.73,0.2,East,8.1,-,N/A,Fog,Fog,90,2013-01-11 08:56:00
3:56 AM,36.0,35.1,97,29.70,0.2,Calm,Calm,-,N/A,Fog,Fog,0,2013-01-11 09:56:00
4:56 AM,35.1,34.0,96,29.69,0.2,Calm,Calm,-,0.02,Fog-Rain,Light Rain,0,2013-01-11 10:56:00
5:11 AM,35.6,33.8,93,29.68,0.5,WNW,3.5,-,0.01,Fog,Fog,290,2013-01-11 11:11:00
5:40 AM,33.8,33.8,100,29.68,0.2,Calm,Calm,-,0.01,Fog,Fog,0,2013-01-11 11:40:00
5:47 AM,33.8,33.8,100,29.68,0.5,Calm,Calm,-,0.01,Fog,Fog,0,2013-01-11 11:47:00
5:56 AM,35.1,34.0,96,29.68,0.2,Calm,Calm,-,0.01,Fog,Fog,0,2013-01-11 11:56:00
6:05 AM,35.6,33.8,93,29.68,0.5,Calm,Calm,-,0.01,Fog,Fog,0,2013-01-11 12:05:00
6:22 AM,33.8,33.8,100,29.69,0.2,South,3.5,-,0.01,Fog,Fog,180,2013-01-11 12:22:00
6:29 AM,35.6,33.8,93,29.69,0.5,South,3.5,-,0.01,Fog,Fog,180,2013-01-11 12:29:00
6:56 AM,34.0,33.1,96,29.68,0.5,ENE,5.8,-,0.02,Fog,Fog,60,2013-01-11 12:56:00
7:12 AM,33.8,33.8,100,29.67,0.5,Calm,Calm,-,N/A,Fog,Fog,0,2013-01-11 13:12:00
7:40 AM,33.8,33.8,100,29.67,0.2,ESE,3.5,-,N/A,Fog,Fog,110,2013-01-11 13:40:00
7:56 AM,34.0,33.1,96,29.67,0.2,Calm,Calm,-,N/A,Fog,Fog,0,2013-01-11 13:56:00
8:47 AM,35.6,33.8,93,29.68,0.2,Calm,Calm,-,N/A,Fog,Fog,0,2013-01-11 14:47:00
8:56 AM,35.1,34.0,96,29.68,0.2,ENE,3.5,-,N/A,Fog,Fog,60,2013-01-11 14:56:00
9:26 AM,33.8,33.8,100,29.66,0.5,ESE,4.6,-,N/A,Fog,Fog,110,2013-01-11 15:26:00
9:38 AM,35.6,33.8,93,29.67,1.5,Calm,Calm,-,N/A,,Overcast,0,2013-01-11 15:38:00
9:44 AM,35.6,35.6,100,29.67,0.5,Calm,Calm,-,N/A,Fog,Fog,0,2013-01-11 15:44:00
9:54 AM,35.6,35.6,100,29.68,0.2,Calm,Calm,-,N/A,Fog,Fog,0,2013-01-11 15:54:00
10:42 AM,37.4,37.4,100,29.69,3.0,SSW,5.8,-,N/A,,Overcast,200,2013-01-11 16:42:00
10:56 AM,37.0,37.0,100,29.69,5.0,South,4.6,-,N/A,,Overcast,180,2013-01-11 16:56:00
11:20 AM,37.4,35.6,93,29.69,1.8,SSW,8.1,-,N/A,,Overcast,200,2013-01-11 17:20:00
11:48 AM,37.4,37.4,100,29.67,0.8,Calm,Calm,-,N/A,,Overcast,0,2013-01-11 17:48:00
11:56 AM,39.0,37.9,96,29.67,0.5,Calm,Calm,-,N/A,Fog,Fog,0,2013-01-11 17:56:00
12:21 PM,39.2,37.4,93,29.65,1.0,South,5.8,-,N/A,,Overcast,180,2013-01-11 18:21:00
12:56 PM,39.0,37.9,96,29.65,1.8,SSE,3.5,-,N/A,,Overcast,160,2013-01-11 18:56:00
1:03 PM,37.4,37.4,100,29.64,0.2,ESE,3.5,-,N/A,Fog,Fog,110,2013-01-11 19:03:00
1:35 PM,37.4,37.4,100,29.64,0.8,Calm,Calm,-,N/A,,Overcast,0,2013-01-11 19:35:00
1:43 PM,39.2,37.4,93,29.65,1.5,Calm,Calm,-,N/A,,Overcast,0,2013-01-11 19:43:00
1:51 PM,39.2,37.4,93,29.64,2.0,Calm,Calm,-,N/A,,Overcast,0,2013-01-11 19:51:00
1:56 PM,39.0,37.0,93,29.65,2.0,Calm,Calm,-,N/A,,Overcast,0,2013-01-11 19:56:00
2:06 PM,41.0,39.2,93,29.61,4.0,East,3.5,-,N/A,,Overcast,90,2013-01-11 20:06:00
2:18 PM,39.2,37.4,93,29.60,2.0,ESE,5.8,-,N/A,,Overcast,120,2013-01-11 20:18:00
2:39 PM,41.0,39.2,93,29.61,0.8,SE,6.9,-,N/A,,Overcast,130,2013-01-11 20:39:00
2:56 PM,39.0,37.9,96,29.62,0.2,ESE,5.8,-,N/A,Fog,Fog,110,2013-01-11 20:56:00
3:56 PM,39.0,39.0,100,29.61,0.2,ESE,5.8,-,N/A,Fog,Fog,120,2013-01-11 21:56:00
4:22 PM,41.0,39.2,93,29.61,1.0,SSE,5.8,-,N/A,,Overcast,150,2013-01-11 22:22:00
4:29 PM,42.8,41.0,93,29.62,2.5,SSE,6.9,-,N/A,,Overcast,160,2013-01-11 22:29:00
4:56 PM,43.0,41.0,93,29.62,4.0,SSE,6.9,-,N/A,,Overcast,160,2013-01-11 22:56:00
5:56 PM,42.1,41.0,96,29.60,3.0,East,8.1,-,N/A,,Overcast,100,2013-01-11 23:56:00
6:56 PM,43.0,41.0,93,29.58,4.0,ESE,6.9,-,N/A,,Overcast,110,2013-01-12 00:56:00
7:40 PM,44.6,42.8,93,29.59,5.0,East,4.6,-,N/A,,Overcast,90,2013-01-12 01:40:00
7:56 PM,46.0,43.0,89,29.58,6.0,East,3.5,-,N/A,,Overcast,100,2013-01-12 01:56:00
8:42 PM,46.4,42.8,87,29.57,7.0,SSE,5.8,-,N/A,,Scattered Clouds,150,2013-01-12 02:42:00
8:56 PM,46.0,43.0,89,29.56,8.0,SE,4.6,-,N/A,,Partly Cloudy,130,2013-01-12 02:56:00
9:56 PM,46.9,42.1,83,29.57,10.0,Variable,6.9,-,N/A,,Clear,0,2013-01-12 03:56:00
10:56 PM,46.9,42.1,83,29.55,10.0,Calm,Calm,-,N/A,,Clear,0,2013-01-12 04:56:00